Location: Hac?musa Deresi
(39.1694°N, 32.2508°E)
Time: 10:02:39
(UTC+00:00)

OAO 2 Rocket - Pass Details

Date: 22 April 2026
Orbit: 668 x 734 km, 35.0° (Epoch: 11 May)

Event Time Altitude Azimuth Distance (km) Brightness Sun altitude
Rises 17:04:52 0° 251° (WSW) 3,130 7.5 -6.3°
Reaches altitude 10° 17:07:22 10° 246° (WSW) 2,202 6.6 -6.7°
Maximum altitude 17:12:22 50° 172° (S) 905 3.7 -7.6°
Drops below altitude 10° 17:17:16 10° 98° (E) 2,165 5.2 -8.5°
Enters shadow 17:17:22 10° 97° (E) 2,201 5.3 -8.5°
